Find Starlink 35205

NORAD ID: 65679 Int'l Des: 2025-212 Owner: SPXS Country: US Constellation: starlink operational
LEOCIRCULAR

現在のビュー

3D地球を読み込み中...

About Starlink 35205

Starlink 35205 (NORAD 65679) is a starlink constellation satellite (v2 mini) launched Sep 21, 2025 by SPXS of US. It operates in LEO, CIRCULAR orbit with a mass of 575.00 kg.

次回通過

Passes for default location (London). Set your location on the main map for personalized predictions.

高度履歴

Loading altitude history...

軌道要素

1 65679U 25212D 26264.21277338 .00018447 00000-0 55566-3 0 9992
2 65679 53.1578 154.3281 0001538 77.6370 282.4805 15.34405943 57172
Epoch: Sep 21, 2026 • Age: 9 hours

現在のステータス

高度 482.1 km
遠地点 / 近地点 N/A
速度 7.62 km/s
衛星直下点 -53.17°S, 143.82°W
打ち上げ日 Sep 21, 2025
運用期間 0.9 years
タイプ internet

技術仕様

分類 Payload
質量 575.00 kg
乾燥質量 530.00 kg
長さ 0.30 m
スパン 29.00 m
形状 ? Box + pan
製造者 SPXS
バスタイプ Starlink V2MO
フェーズステータス In Orbit
所有者/国 SPXS/US

Most Searched